Flugplatz Büren am Schwalenberg (UL)

Hier findest Du alle Informationen zum Flugplatz Büren am Schwalenberg (UL).

Informationen für Piloten zum Flugplatz Büren am Schwalenberg

Hier findest Du alle relevanten Informationen, die Du als Pilot benötigst, um Büren am Schwalenberg anzufliegen.

Flugplatz: Büren am Schwalenberg ICAO-Code: UL Flugplatz
Frequenz Turm: 122,475 Mhz GAFOR Gebiet: 10
Frequenz Ground: 122,475 Mhz Mogas: nein
Platzrunde: SO 1800 ft Landegebühr: -
Platzhöhe: Sunrise: 06:12 Uhr UTC
Pisten: 01/19 - 1000 m x 30 m, GRAS Sunset: 17:04 Uhr UTC

Mitglieder, die in Büren am Schwalenberg fliegen

Flugwetter am Flugplatz Büren am Schwalenberg

Die METAR Information stammen aus EDLP (8.25 km entfernt).

METAR Code:
2024/02/18 14:20
EDLP 181420Z 18012KT 9999 -RA FEW048 09/05 Q1022

Flugschulen am Flugplatz Büren am Schwalenberg

Am Flugplatz Büren am Schwalenberg gibt es leider keine Flugschule.

Benachbarte Flugplätze und Flugschulen

Es gibt 19 weitere Flugplätze in einem Umkreis von 50 km um den Flugplatz Büren am Schwalenberg.

Jetzt anmelden

Passwort vergessen

Umfrage Archiv

Wie häufig haltet Ihr die Halbkreisflugregel ein?

Eher häufig!
35 %
Immer!
32.5 %
Hin und wieder!
15.5 %
Nie!
10.2 %
Eher selten!
6.8 %
Stimmen: 206 | Diskussion
Anzeige: Roland Aircraft
Statistik Alle Mitglieder

Aktuell sind 20 Besucher online, davon 3 Mitglieder und 17 Gäste.


Mitglieder online:
tweety08  der_aussiedler  Heli 

Anzeige: EasyVFR